Location: Bogis-Bossey
(46.3500°N, 6.1667°E)
Time: 19:37:22
(UTC+00:00)

USA 238 DEB - Pass Details

Date: 28 February 2024
Orbit: 926 x 1285 km, 63.4° (Epoch: 21 April)

Event Time Altitude Azimuth Distance (km) Brightness Sun altitude
Exits shadow 04:16:56 39° 243° (WSW) 1,439 3.9 -21.5°
Maximum altitude 04:19:23 68° 313° (NW) 1,081 3.5 -21.1°
Drops below altitude 10° 04:26:12 10° 37° (NE) 2,918 6.6 -20.0°
Sets 04:29:01 0° 40° (NE) 3,933 7.4 -19.5°
